Yankton, SD

12:39 PM CST on December 15, 2019 (GMT -0600)
Gurney Municipal

Weather History for KYKN - October, 2019

Change the Weather History Date:

Thursday, October 10, 2019

  Actual Average Record
Temperature  
Mean Temperature 42 °F -  
Max Temperature 50 °F 64 °F 90 °F (1980)
Min Temperature 33 °F 38 °F 26 °F (1964)
Degree Days  
Heating Degree Days 24    
Moisture  
Dew Point 38 °F    
Average Humidity 93    
Maximum Humidity 100    
Minimum Humidity 78    
Precipitation  
Precipitation 0.24 in - - ()
Sea Level Pressure  
Sea Level Pressure 29.93 in    
Wind  
Wind Speed 19 mph (NW)    
Max Wind Speed 28 mph    
Max Gust Speed 37 mph    
Visibility 7 miles    
Events Rain , Snow , Thunderstorm    
Averages and records for this station are not official NWS values.
T = Trace of Precipitation, MM = Missing Value Source: NWS Daily Summary

Daily Weather History Graph

Daily Weather History Graph

Search for Another Location

Airport or City:

Astronomy

Oct. 10, 2019 Rise Set
Actual Time 7:36 AM CDT 6:55 PM CDT
Civil Twilight 7:08 AM CDT 7:23 PM CDT
Nautical Twilight 6:35 AM CDT 7:56 PM CDT
Astronomical Twilight 6:02 AM CDT 8:29 PM CDT
Moon 6:03 PM CDT (10/10) 4:14 AM CDT (10/10)
Length of Visible Light 12h 15m
Length of Day
11h 18m
Waxing Gibbous, 91% of the Moon is Illuminated
Oct 10
Waxing Gibbous
Oct 13
Full
Oct 21
Last Quarter
Oct 27
New
Nov 4
First Quarter

Hourly Weather History & Observations

Time (CDT) Temp. Windchill Dew Point Humidity Pressure Visibility Wind Dir Wind Speed Gust Speed Precip Events Conditions
12:10 AM 50.0 °F - 48.2 °F 94% 29.88 in 10.0 mi NW 9.2 mph - N/A   Overcast
12:56 AM 50.0 °F - 48.9 °F 96% 29.90 in 6.0 mi NW 12.7 mph - N/A   Overcast
1:56 AM 48.9 °F - 48.0 °F 97% 29.91 in 4.0 mi WNW 15.0 mph - N/A   Overcast
2:06 AM 48.2 °F - 48.2 °F 100% 29.86 in 2.5 mi NW 17.3 mph - 0.00 in Rain Light Rain
2:29 AM 46.4 °F 39.5 °F 46.4 °F 100% 29.84 in 6.0 mi NW 17.3 mph - 0.00 in Rain Light Rain
2:36 AM 46.4 °F 39.5 °F 46.4 °F 100% 29.84 in 10.0 mi NNW 17.3 mph - 0.00 in   Overcast
2:56 AM 46.9 °F - 45.0 °F 93% 29.86 in 10.0 mi NNW 18.4 mph 21.9 mph 0.00 in   Overcast
3:56 AM 46.0 °F 39.9 °F 44.1 °F 93% 29.87 in 8.0 mi NNW 13.8 mph - N/A   Overcast
4:56 AM 45.0 °F 38.2 °F 44.1 °F 97% 29.87 in 3.0 mi NW 15.0 mph - 0.00 in Rain Light Rain
5:01 AM 44.6 °F 38.1 °F 44.6 °F 100% 29.82 in 2.5 mi NNW 13.8 mph 20.7 mph 0.00 in Rain Light Rain
5:17 AM 44.6 °F 37.4 °F 44.6 °F 100% 29.83 in 3.0 mi NW 16.1 mph - 0.00 in Rain Light Rain
5:56 AM 43.0 °F 34.2 °F 42.1 °F 97% 29.91 in 3.0 mi NW 20.7 mph 27.6 mph 0.01 in Rain Light Rain
6:56 AM 41.0 °F 31.1 °F 39.9 °F 96% 29.92 in 3.0 mi NW 23.0 mph 27.6 mph 0.02 in Rain Light Rain
7:56 AM 39.9 °F 29.2 °F 39.0 °F 97% 29.92 in 3.0 mi NW 25.3 mph 28.8 mph 0.00 in Rain Light Rain
8:56 AM 39.0 °F 27.8 °F 37.9 °F 96% 29.91 in 4.0 mi NW 26.5 mph 36.8 mph 0.00 in Rain Light Rain
9:56 AM 39.0 °F 29.0 °F 37.0 °F 93% 29.94 in 10.0 mi NNW 20.7 mph 29.9 mph 0.00 in Rain Light Rain
10:11 AM 39.2 °F 29.0 °F 37.4 °F 93% 29.89 in 4.0 mi NW 21.9 mph 28.8 mph 0.00 in Rain Light Rain
10:45 AM 37.4 °F 26.1 °F 37.4 °F 100% 29.90 in 1.8 mi NW 24.2 mph 28.8 mph 0.01 in Rain Light Rain
10:48 AM 37.4 °F 27.5 °F 37.4 °F 100% 29.90 in 2.0 mi NW 18.4 mph 28.8 mph 0.02 in Rain Light Rain
10:56 AM 37.9 °F 27.6 °F 37.0 °F 97% 29.96 in 2.5 mi NW 20.7 mph 29.9 mph 0.09 in Rain Rain
11:03 AM 37.4 °F 26.1 °F 37.4 °F 100% 29.91 in 3.0 mi NW 24.2 mph 29.9 mph 0.01 in Snow Light Snow
11:29 AM 37.4 °F 26.4 °F 35.6 °F 93% 29.91 in 8.0 mi NW 23.0 mph 28.8 mph 0.01 in   Overcast
11:36 AM 39.2 °F 30.2 °F 37.4 °F 93% 29.92 in 9.0 mi NW 17.3 mph 28.8 mph 0.01 in   Overcast
11:43 AM 39.2 °F 29.0 °F 37.4 °F 93% 29.91 in 6.0 mi NW 21.9 mph 28.8 mph 0.01 in   Overcast
11:56 AM 37.9 °F 27.6 °F 37.0 °F 97% 29.96 in 2.0 mi WNW 20.7 mph 28.8 mph 0.02 in Rain Light Rain
12:21 PM 37.4 °F 25.9 °F 35.6 °F 93% 29.92 in 3.0 mi WNW 25.3 mph 31.1 mph 0.00 in Rain , Thunderstorm Light Thunderstorms and Rain
12:41 PM 37.4 °F 26.4 °F 35.6 °F 93% 29.90 in 2.5 mi NW 23.0 mph 29.9 mph 0.08 in Rain , Thunderstorm Light Thunderstorms and Rain
12:49 PM 37.4 °F 26.9 °F 35.6 °F 93% 29.90 in 4.0 mi NW 20.7 mph 29.9 mph 0.09 in Rain , Thunderstorm Light Thunderstorms and Rain
12:56 PM 37.0 °F 25.9 °F 36.0 °F 96% 29.96 in 7.0 mi NW 23.0 mph 29.9 mph 0.09 in Rain Light Rain
1:02 PM 37.4 °F 26.9 °F 35.6 °F 93% 29.89 in 10.0 mi NW 20.7 mph 27.6 mph 0.00 in Rain Light Rain
1:14 PM 37.4 °F 26.1 °F 35.6 °F 93% 29.90 in 10.0 mi WNW 24.2 mph 29.9 mph 0.00 in Rain Light Rain
1:56 PM 37.0 °F 25.6 °F 35.1 °F 93% 29.96 in 6.0 mi WNW 24.2 mph 31.1 mph 0.00 in   Overcast
2:56 PM 36.0 °F 23.9 °F 35.1 °F 97% 29.96 in 6.0 mi WNW 25.3 mph 31.1 mph 0.01 in Rain Light Rain
3:56 PM 36.0 °F 23.9 °F 33.1 °F 89% 29.97 in 10.0 mi NW 25.3 mph 33.4 mph 0.00 in Rain Light Rain
4:56 PM 36.0 °F 23.5 °F 33.1 °F 89% 29.99 in 10.0 mi NW 27.6 mph 32.2 mph 0.00 in   Overcast
5:56 PM 36.0 °F 23.9 °F 33.1 °F 89% 30.01 in 10.0 mi WNW 25.3 mph 34.5 mph 0.00 in   Overcast
6:22 PM 35.6 °F 24.5 °F 33.8 °F 93% 29.95 in 10.0 mi NW 20.7 mph 27.6 mph 0.00 in   Overcast
6:56 PM 36.0 °F 25.0 °F 32.0 °F 86% 30.03 in 10.0 mi WNW 20.7 mph 31.1 mph 0.00 in   Overcast
7:56 PM 35.1 °F 22.5 °F 30.9 °F 85% 30.04 in 10.0 mi WNW 26.5 mph 35.7 mph 0.00 in Rain Light Rain
8:42 PM 33.8 °F 20.5 °F 30.2 °F 87% 29.98 in 10.0 mi WNW 27.6 mph 34.5 mph 0.00 in Rain Light Rain
8:56 PM 34.0 °F 21.5 °F 30.9 °F 89% 30.05 in 10.0 mi WNW 24.2 mph 32.2 mph 0.00 in   Overcast
9:06 PM 35.6 °F 23.2 °F 30.2 °F 81% 29.98 in 10.0 mi WNW 26.5 mph 29.9 mph N/A   Overcast
9:56 PM 35.1 °F 23.5 °F 30.0 °F 82% 30.07 in 10.0 mi WNW 21.9 mph 28.8 mph N/A   Overcast
10:56 PM 35.1 °F 22.7 °F 30.0 °F 82% 30.09 in 10.0 mi WNW 25.3 mph 34.5 mph N/A   Overcast
11:56 PM 35.1 °F 22.5 °F 28.9 °F 78% 30.09 in 10.0 mi WNW 26.5 mph 33.4 mph N/A   Overcast